Time,TemperatureF,DewpointF,PressureIn,WindDirection,WindDirectionDegrees,WindSpeedMPH,WindSpeedGustMPH,Humidity,HourlyPrecipIn,Conditions,Clouds,dailyrainin,SolarRadiationWatts/m^2,SoftwareType,DateUTC
2013-07-06 00:12:00,50.0,49.0,-100.00,NE,48,1.0,3.0,96,0.00,,,0.00,0.000000,,2013-07-06 07:12:00,
2013-07-06 00:22:00,50.0,49.0,-100.00,NE,48,1.0,3.0,96,0.00,,,0.00,0.000000,,2013-07-06 07:22:00,
2013-07-06 00:33:00,50.0,49.0,-100.00,NE,48,1.0,3.0,96,0.00,,,0.00,0.000000,,2013-07-06 07:33:00,
2013-07-06 00:43:00,50.0,49.0,-100.00,NE,48,1.0,3.0,96,0.00,,,0.00,0.000000,,2013-07-06 07:43:00,
2013-07-06 00:52:00,50.0,49.0,-100.00,NE,48,1.0,3.0,96,0.00,,,0.00,0.000000,,2013-07-06 07:52:00,
2013-07-06 00:53:00,49.0,48.0,-100.00,ENE,66,1.0,3.0,97,0.00,,,0.00,0.000000,,2013-07-06 07:53:00,
2013-07-06 01:21:00,49.0,48.0,-100.00,ENE,66,1.0,3.0,97,0.00,,,0.00,0.000000,,2013-07-06 08:21:00,
2013-07-06 01:33:00,49.0,48.0,-100.00,ENE,66,1.0,3.0,97,0.00,,,0.00,0.000000,,2013-07-06 08:33:00,
2013-07-06 01:43:00,49.0,48.0,-100.00,ENE,66,1.0,3.0,97,0.00,,,0.00,0.000000,,2013-07-06 08:43:00,
2013-07-06 02:22:00,50.0,49.0,-100.00,North,352,1.0,3.0,98,0.00,,,0.00,0.000000,,2013-07-06 09:22:00,
2013-07-06 02:33:00,50.0,49.0,-100.00,North,352,1.0,3.0,98,0.00,,,0.00,0.000000,,2013-07-06 09:33:00,
2013-07-06 02:43:00,50.0,49.0,-100.00,North,352,1.0,3.0,98,0.00,,,0.00,0.000000,,2013-07-06 09:43:00,
2013-07-06 02:53:00,50.0,49.0,-100.00,North,1,1.0,5.0,96,0.00,,,0.00,0.000000,,2013-07-06 09:53:00,
2013-07-06 03:11:00,50.0,49.0,-100.00,North,1,1.0,5.0,96,0.00,,,0.00,0.000000,,2013-07-06 10:11:00,
2013-07-06 03:22:00,50.0,49.0,-100.00,North,1,1.0,5.0,96,0.00,,,0.00,0.000000,,2013-07-06 10:22:00,
2013-07-06 03:33:00,50.0,49.0,-100.00,North,1,1.0,5.0,96,0.00,,,0.00,0.000000,,2013-07-06 10:33:00,
2013-07-06 03:42:00,50.0,49.0,-100.00,North,1,1.0,5.0,96,0.00,,,0.00,0.000000,,2013-07-06 10:42:00,
2013-07-06 04:11:00,48.0,47.0,-100.00,NNW,341,1.0,3.0,97,0.00,,,0.00,0.000000,,2013-07-06 11:11:00,
2013-07-06 04:22:00,48.0,47.0,-100.00,NNW,341,1.0,3.0,97,0.00,,,0.00,0.000000,,2013-07-06 11:22:00,
2013-07-06 04:33:00,48.0,47.0,-100.00,NNW,341,1.0,3.0,97,0.00,,,0.00,0.000000,,2013-07-06 11:33:00,
2013-07-06 04:42:00,48.0,47.0,-100.00,NNW,341,1.0,3.0,97,0.00,,,0.00,0.000000,,2013-07-06 11:42:00,
2013-07-06 04:52:00,48.0,47.0,-100.00,NNW,341,1.0,3.0,97,0.00,,,0.00,0.000000,,2013-07-06 11:52:00,
2013-07-06 05:11:00,49.0,48.0,-100.00,ENE,63,1.0,3.0,97,0.00,,,0.00,0.000000,,2013-07-06 12:11:00,
2013-07-06 05:22:00,49.0,48.0,-100.00,ENE,63,1.0,3.0,97,0.00,,,0.00,0.000000,,2013-07-06 12:22:00,
2013-07-06 05:33:00,49.0,48.0,-100.00,ENE,63,1.0,3.0,97,0.00,,,0.00,0.000000,,2013-07-06 12:33:00,
2013-07-06 05:43:00,49.0,48.0,-100.00,ENE,63,1.0,3.0,97,0.00,,,0.00,0.000000,,2013-07-06 12:43:00,
2013-07-06 05:52:00,49.0,48.0,-100.00,ENE,63,1.0,3.0,97,0.00,,,0.00,0.000000,,2013-07-06 12:52:00,
2013-07-06 06:22:00,47.0,46.0,-100.00,NW,307,1.0,2.0,97,0.00,,,0.00,4.000000,,2013-07-06 13:22:00,
2013-07-06 06:33:00,47.0,46.0,-100.00,NW,307,1.0,2.0,97,0.00,,,0.00,4.000000,,2013-07-06 13:33:00,
2013-07-06 06:43:00,47.0,46.0,-100.00,NW,307,1.0,2.0,97,0.00,,,0.00,4.000000,,2013-07-06 13:43:00,
2013-07-06 06:52:00,47.0,46.0,-100.00,NW,307,1.0,2.0,97,0.00,,,0.00,4.000000,,2013-07-06 13:52:00,
2013-07-06 06:53:00,50.0,46.0,-100.00,NNW,333,1.0,3.0,86,0.00,,,0.00,43.000000,,2013-07-06 13:53:00,
2013-07-06 07:42:00,50.0,46.0,-100.00,NNW,333,1.0,3.0,86,0.00,,,0.00,43.000000,,2013-07-06 14:42:00,
2013-07-06 08:33:00,55.0,47.0,-100.00,NE,52,2.0,5.0,74,0.00,,,0.00,197.000000,,2013-07-06 15:33:00,
2013-07-06 08:43:00,55.0,47.0,-100.00,NE,52,2.0,5.0,74,0.00,,,0.00,197.000000,,2013-07-06 15:43:00,
2013-07-06 08:52:00,55.0,47.0,-100.00,NE,52,2.0,5.0,74,0.00,,,0.00,197.000000,,2013-07-06 15:52:00,
2013-07-06 08:53:00,56.0,47.0,-100.00,South,177,2.0,5.0,72,0.00,,,0.00,275.000000,,2013-07-06 15:53:00,
2013-07-06 09:14:00,56.0,47.0,-100.00,South,177,2.0,5.0,72,0.00,,,0.00,275.000000,,2013-07-06 16:14:00,
2013-07-06 09:23:00,56.0,47.0,-100.00,South,177,2.0,5.0,72,0.00,,,0.00,275.000000,,2013-07-06 16:23:00,
2013-07-06 09:37:00,56.0,47.0,-100.00,South,177,2.0,5.0,72,0.00,,,0.00,275.000000,,2013-07-06 16:37:00,
2013-07-06 09:46:00,56.0,47.0,-100.00,South,177,2.0,5.0,72,0.00,,,0.00,275.000000,,2013-07-06 16:46:00,
2013-07-06 10:18:00,62.0,51.0,-100.00,West,276,2.0,5.0,66,0.00,,,0.00,434.000000,,2013-07-06 17:18:00,
2013-07-06 10:27:00,62.0,51.0,-100.00,West,276,2.0,5.0,66,0.00,,,0.00,434.000000,,2013-07-06 17:27:00,
2013-07-06 10:37:00,62.0,51.0,-100.00,West,276,2.0,5.0,66,0.00,,,0.00,434.000000,,2013-07-06 17:37:00,
2013-07-06 11:18:00,66.0,50.0,-100.00,West,262,3.0,6.0,56,0.00,,,0.00,931.000000,,2013-07-06 18:18:00,
2013-07-06 11:27:00,66.0,50.0,-100.00,West,262,3.0,6.0,56,0.00,,,0.00,931.000000,,2013-07-06 18:27:00,
2013-07-06 11:37:00,66.0,50.0,-100.00,West,262,3.0,6.0,56,0.00,,,0.00,931.000000,,2013-07-06 18:37:00,
2013-07-06 11:46:00,66.0,50.0,-100.00,West,262,3.0,6.0,56,0.00,,,0.00,931.000000,,2013-07-06 18:46:00,
2013-07-06 12:18:00,70.0,50.0,-100.00,ESE,110,2.0,8.0,50,0.00,,,0.00,1059.000000,,2013-07-06 19:18:00,
2013-07-06 12:36:00,70.0,50.0,-100.00,ESE,110,2.0,8.0,50,0.00,,,0.00,1059.000000,,2013-07-06 19:36:00,
2013-07-06 12:53:00,73.0,50.0,-100.00,North,351,2.0,10.0,45,0.00,,,0.00,1131.000000,,2013-07-06 19:53:00,
2013-07-06 13:18:00,73.0,50.0,-100.00,North,351,2.0,10.0,45,0.00,,,0.00,1131.000000,,2013-07-06 20:18:00,
2013-07-06 13:27:00,73.0,50.0,-100.00,North,351,2.0,10.0,45,0.00,,,0.00,1131.000000,,2013-07-06 20:27:00,
2013-07-06 13:47:00,73.0,50.0,-100.00,North,351,2.0,10.0,45,0.00,,,0.00,1131.000000,,2013-07-06 20:47:00,
2013-07-06 15:26:00,74.0,52.0,-100.00,North,355,4.0,12.0,47,0.00,,,0.00,1106.000000,,2013-07-06 22:26:00,
2013-07-06 15:46:00,74.0,52.0,-100.00,North,355,4.0,12.0,47,0.00,,,0.00,1106.000000,,2013-07-06 22:46:00,
2013-07-06 15:53:00,75.0,54.0,-100.00,NW,320,3.0,10.0,48,0.00,,,-99.99,1012.000000,,2013-07-06 22:53:00,
2013-07-06 16:18:00,75.0,54.0,-100.00,NW,320,3.0,10.0,48,0.00,,,-99.99,1012.000000,,2013-07-06 23:18:00,
2013-07-06 16:46:00,75.0,54.0,-100.00,NW,320,3.0,10.0,48,0.00,,,-99.99,1012.000000,,2013-07-06 23:46:00,
2013-07-06 19:26:00,72.0,54.0,-100.00,NNW,331,3.0,12.0,53,0.00,,,0.00,467.000000,,2013-07-07 02:26:00,
2013-07-06 20:16:00,67.0,53.0,-100.00,NNW,347,2.0,10.0,60,0.00,,,0.00,226.000000,,2013-07-07 03:16:00,
2013-07-06 20:52:00,67.0,53.0,-100.00,NNW,347,2.0,10.0,60,0.00,,,0.00,226.000000,,2013-07-07 03:52:00,
2013-07-06 21:11:00,60.0,51.0,-100.00,North,7,2.0,10.0,71,0.00,,,0.00,28.000000,,2013-07-07 04:11:00,
2013-07-06 21:21:00,60.0,51.0,-100.00,North,7,2.0,10.0,71,0.00,,,0.00,28.000000,,2013-07-07 04:21:00,
2013-07-06 21:31:00,60.0,51.0,-100.00,North,7,2.0,10.0,71,0.00,,,0.00,28.000000,,2013-07-07 04:31:00,
2013-07-06 21:41:00,60.0,51.0,-100.00,North,7,2.0,10.0,71,0.00,,,0.00,28.000000,,2013-07-07 04:41:00,
2013-07-06 21:51:00,60.0,51.0,-100.00,North,7,2.0,10.0,71,0.00,,,0.00,28.000000,,2013-07-07 04:51:00,
2013-07-06 22:11:00,54.0,49.0,-100.00,NE,39,1.0,7.0,84,0.00,,,0.00,1.000000,,2013-07-07 05:11:00,
2013-07-06 22:21:00,54.0,49.0,-100.00,NE,39,1.0,7.0,84,0.00,,,0.00,1.000000,,2013-07-07 05:21:00,
2013-07-06 22:31:00,54.0,49.0,-100.00,NE,39,1.0,7.0,84,0.00,,,0.00,1.000000,,2013-07-07 05:31:00,
2013-07-06 22:41:00,54.0,49.0,-100.00,NE,39,1.0,7.0,84,0.00,,,0.00,1.000000,,2013-07-07 05:41:00,
2013-07-06 22:51:00,54.0,49.0,-100.00,NE,39,1.0,7.0,84,0.00,,,0.00,1.000000,,2013-07-07 05:51:00,
2013-07-06 23:11:00,54.0,50.0,-100.00,East,101,1.0,4.0,87,0.00,,,0.00,0.000000,,2013-07-07 06:11:00,
2013-07-06 23:21:00,54.0,50.0,-100.00,East,101,1.0,4.0,87,0.00,,,0.00,0.000000,,2013-07-07 06:21:00,
2013-07-06 23:32:00,54.0,50.0,-100.00,East,101,1.0,4.0,87,0.00,,,0.00,0.000000,,2013-07-07 06:32:00,
2013-07-06 23:43:00,54.0,50.0,-100.00,East,101,1.0,4.0,87,0.00,,,0.00,0.000000,,2013-07-07 06:43:00,
2013-07-06 23:52:00,54.0,50.0,-100.00,East,101,1.0,4.0,87,0.00,,,0.00,0.000000,,2013-07-07 06:52:00,
2013-07-06 23:53:00,52.0,50.0,-100.00,East,81,1.0,3.0,93,0.00,,,0.00,0.000000,,2013-07-07 06:53:00,